Location: Unspecified
(0.0000°N, 0.0000°E)
Time: 15:24:12
(UTC+00:00)

AAUSAT3 - Pass Details

Date: 12 August 2024
Orbit: 756 x 773 km, 98.4° (Epoch: 17 September)

Event Time Altitude Azimuth Distance (km) Brightness Sun altitude
Rises 19:14:24 0° 336° (NNW) 3,211 ? -16.8°
Reaches altitude 10° 19:18:04 10° 308° (NW) 2,294 ? -17.7°
Maximum altitude 19:20:12 13° 283° (WNW) 2,116 ? -18.2°
Drops below altitude 10° 19:22:20 10° 257° (WSW) 2,303 ? -18.7°
Sets 19:26:03 0° 229° (SW) 3,237 ? -19.6°
